QPF
0.01 0.01 0.01 0.02 0.04 0.04 0.03 0.03 0.03 0.02 0.02 0.05 0.07 0.09 0.09 0.10 0.13 0.13 0.15 0.11 0.06 0.05 0.06 0.07 0.09 0.08 0.06 0.06 0.05 0.03 0.02 0.01 0.01 0.02 0.01 0.02 0.02 0.03 0.03 0.03 0.03 0.02 0.02
0.00 0.00 0.00 0.00 0.01 0.01 0.02 0.02 0.01 0.01 0.01 0.02 0.04 0.05 0.06 0.05 0.05 0.07 0.08 0.09 0.07 0.05 0.04 0.05 0.06 0.08 0.06 0.04 0.04 0.04 0.04 0.03 0.02 0.02 0.02 0.02 0.02 0.02 0.03 0.03 0.03 0.02 0.02
0.00 0.00 0.00 0.00 0.00 0.00 0.01 0.02 0.02 0.01 0.01 0.02 0.03 0.05 0.05 0.04 0.03 0.03 0.04 0.04 0.05 0.04 0.03 0.03 0.03 0.05 0.06 0.05 0.04 0.04 0.04 0.04 0.03 0.03 0.04 0.04 0.03 0.03 0.02 0.03 0.03 0.02 0.02
0.00 0.00 0.00 0.00 0.00 0.00 0.01 0.02 0.02 0.02 0.01 0.02 0.02 0.05 0.05 0.04 0.04 0.02 0.03 0.02 0.03 0.03 0.03 0.03 0.03 0.03 0.03 0.04 0.05 0.04 0.04 0.03 0.04 0.04 0.04 0.04 0.04 0.04 0.03 0.03 0.04 0.05 0.04
0.00 0.00 0.00 0.00 0.00 0.00 0.01 0.01 0.02 0.02 0.02 0.02 0.01 0.02 0.05 0.06 0.06 0.05 0.03 0.02 0.02 0.01 0.01 0.02 0.02 0.02 0.02 0.02 0.03 0.04 0.04 0.02 0.02 0.03 0.03 0.04 0.03 0.03 0.03 0.02 0.03 0.04 0.05
0.00 0.00 0.00 0.00 0.00 0.00 0.00 0.00 0.01 0.02 0.02 0.02 0.02 0.01 0.02 0.03 0.05 0.05 0.04 0.02 0.01 0.01 0.01 0.01 0.01 0.01 0.01 0.01 0.01 0.01 0.02 0.02 0.02 0.02 0.02 0.03 0.03 0.03 0.03 0.03 0.02 0.03 0.03
0.00 0.00 0.00 0.00 0.00 0.00 0.00 0.00 0.00 0.01 0.01 0.02 0.01 0.01 0.01 0.01 0.01 0.02 0.03 0.03 0.01 0.01 0.01 0.01 0.01 0.01 0.01 0.01 0.01 0.01 0.01 0.01 0.01 0.01 0.01 0.01 0.02 0.03 0.04 0.05 0.04 0.03 0.03
0.00 0.00 0.00 0.00 0.00 0.00 0.00 0.00 0.00 0.00 0.01 0.01 0.01 0.01 0.01 0.01 0.00 0.00 0.01 0.01 0.01 0.01 0.01 0.00 0.00 0.00 0.00 0.00 0.01 0.01 0.01 0.01 0.01 0.01 0.01 0.02 0.02 0.03 0.05 0.06 0.06 0.06 0.05
0.00 0.00 0.00 0.00 0.00 0.00 0.00 0.00 0.00 0.00 0.00 0.00 0.00 0.01 0.01 0.00 0.00 0.00 0.00 0.00 0.00 0.01 0.01 0.00 0.00 0.00 0.00 0.00 0.00 0.01 0.01 0.01 0.01 0.01 0.01 0.01 0.02 0.02 0.03 0.03 0.04 0.05 0.05
0.00 0.00 0.00 0.00 0.00 0.00 0.00 0.00 0.00 0.00 0.00 0.00 0.00 0.00 0.00 0.00 0.00 0.00 0.00 0.00 0.00 0.00 0.00 0.00 0.00 0.00 0.00 0.00 0.00 0.00 0.00 0.01 0.01 0.01 0.01 0.01 0.01 0.02 0.02 0.03 0.03 0.03 0.04
0.00 0.00 0.00 0.00 0.00 0.00 0.00 0.00 0.00 0.00 0.00 0.00 0.00 0.00 0.00 0.00 0.00 0.00 0.00 0.00 0.00 0.00 0.00 0.00 0.00 0.00 0.00 0.00 0.00 0.00 0.00 0.00 0.00 0.00 0.01 0.00 0.01 0.01 0.01 0.01 0.01 0.02 0.02
0.00 0.00 0.00 0.00 0.01 0.00 0.00 0.00 0.00 0.00 0.00 0.00 0.00 0.00 0.00 0.00 0.00 0.00 0.00 0.00 0.00 0.00 0.00 0.00 0.00 0.00 0.00 0.00 0.00 0.00 0.00 0.00 0.00 0.00 0.00 0.00 0.01 0.01 0.01 0.01 0.01 0.01 0.01
0.00 0.00 0.00 0.01 0.01 0.01 0.01 0.00 0.00 0.00 0.00 0.00 0.00 0.00 0.00 0.00 0.00 0.00 0.00 0.00 0.00 0.00 0.00 0.00 0.00 0.00 0.00 0.00 0.00 0.00 0.00 0.00 0.00 0.00 0.00 0.00 0.01 0.01 0.01 0.01 0.01 0.01 0.01
0.00 0.00 0.00 0.00 0.01 0.01 0.00 0.00 0.00 0.00 0.00 0.00 0.00 0.00 0.00 0.00 0.00 0.00 0.00 0.00 0.00 0.00 0.00 0.00 0.00 0.00 0.00 0.00 0.00 0.00 0.00 0.00 0.00 0.00 0.00 0.01 0.01 0.01 0.01 0.01 0.01 0.01 0.01
0.00 0.00 0.00 0.00 0.00 0.00 0.00 0.00 0.00 0.00 0.00 0.00 0.00 0.00 0.00 0.00 0.00 0.00 0.00 0.00 0.00 0.00 0.00 0.00 0.00 0.00 0.00 0.00 0.00 0.00 0.00 0.00 0.00 0.01 0.01 0.01 0.01 0.01 0.01 0.01 0.01 0.01 0.01
0.00 0.00 0.00 0.00 0.00 0.00 0.00 0.00 0.00 0.00 0.00 0.00 0.00 0.00 0.00 0.00 0.00 0.00 0.00 0.00 0.00 0.00 0.00 0.00 0.00 0.00 0.00 0.00 0.01 0.01 0.01 0.01 0.01 0.01 0.01 0.01 0.01 0.01 0.01 0.01 0.01 0.01 0.01
0.00 0.00 0.00 0.00 0.00 0.00 0.00 0.00 0.00 0.00 0.00 0.00 0.00 0.00 0.00 0.00 0.00 0.00 0.00 0.00 0.00 0.00 0.00 0.00 0.00 0.00 0.00 0.00 0.01 0.01 0.01 0.01 0.01 0.01 0.00 0.00 0.00 0.01 0.00 0.01 0.01 0.01 0.01
0.00 0.00 0.00 0.00 0.00 0.00 0.00 0.00 0.00 0.00 0.00 0.00 0.00 0.00 0.00 0.00 0.00 0.00 0.00 0.00 0.00 0.00 0.00 0.00 0.00 0.00 0.00 0.01 0.01 0.01 0.01 0.01 0.01 0.01 0.01 0.00 0.00 0.00 0.00 0.00 0.00 0.00 0.00
0.00 0.00 0.00 0.00 0.00 0.00 0.00 0.00 0.01 0.01 0.00 0.00 0.00 0.00 0.00 0.00 0.00 0.00 0.00 0.00 0.00 0.00 0.00 0.00 0.00 0.01 0.01 0.01 0.01 0.01 0.01 0.01 0.01 0.01 0.01 0.01 0.00 0.01 0.01 0.01 0.01 0.01 0.01
0.00 0.00 0.00 0.00 0.00 0.00 0.00 0.00 0.00 0.00 0.00 0.00 0.00 0.00 0.00 0.00 0.00 0.00 0.00 0.00 0.00 0.00 0.00 0.00 0.00 0.01 0.01 0.01 0.01 0.01 0.01 0.01 0.01 0.01 0.01 0.01 0.01 0.01 0.01 0.01 0.01 0.01 0.01
0.00 0.00 0.00 0.00 0.00 0.00 0.00 0.00 0.00 0.00 0.00 0.00 0.00 0.00 0.00 0.00 0.00 0.00 0.00 0.00 0.00 0.00 0.00 0.00 0.00 0.00 0.01 0.01 0.01 0.01 0.01 0.01 0.01 0.01 0.01 0.01 0.01 0.01 0.01 0.01 0.01 0.01 0.01
0.00 0.00 0.00 0.00 0.00 0.00 0.00 0.00 0.00 0.00 0.00 0.00 0.00 0.00 0.00 0.00 0.00 0.00 0.00 0.00 0.00 0.00 0.00 0.00 0.00 0.00 0.00 0.01 0.01 0.01 0.01 0.01 0.01 0.01 0.01 0.00 0.01 0.01 0.02 0.01 0.01 0.02 0.01
0.00 0.00 0.00 0.00 0.00 0.00 0.00 0.00 0.00 0.00 0.00 0.00 0.00 0.00 0.00 0.00 0.00 0.00 0.00 0.00 0.00 0.00 0.00 0.00 0.00 0.00 0.00 0.01 0.01 0.01 0.01 0.01 0.01 0.01 0.01 0.01 0.01 0.01 0.02 0.02 0.02 0.01 0.01
0.00 0.00 0.00 0.00 0.00 0.00 0.00 0.00 0.00 0.00 0.00 0.00 0.00 0.00 0.00 0.00 0.00 0.00 0.00 0.00 0.00 0.00 0.00 0.00 0.00 0.00 0.00 0.01 0.01 0.02 0.02 0.02 0.01 0.01 0.01 0.01 0.01 0.01 0.01 0.02 0.02 0.01 0.01
0.00 0.00 0.00 0.00 0.00 0.00 0.00 0.00 0.00 0.00 0.00 0.00 0.00 0.00 0.00 0.00 0.00 0.00 0.00 0.00 0.00 0.00 0.00 0.01 0.01 0.01 0.01 0.01 0.01 0.02 0.02 0.02 0.02 0.02 0.02 0.02 0.02 0.02 0.01 0.01 0.01 0.01 0.01
0.00 0.00 0.00 0.00 0.00 0.00 0.00 0.00 0.00 0.00 0.00 0.00 0.00 0.00 0.00 0.00 0.00 0.00 0.00 0.00 0.00 0.00 0.01 0.01 0.01 0.01 0.01 0.01 0.01 0.02 0.02 0.02 0.02 0.03 0.02 0.02 0.02 0.01 0.01 0.01 0.01 0.01 0.01
MSLP
1015.87 1015.83 1015.85 1015.97 1016.17 1016.46 1016.82 1017.23 1017.68 1018.12 1018.53 1018.88 1019.15 1019.34 1019.43 1019.46 1019.43 1019.36 1019.30 1019.24 1019.20 1019.20 1019.21 1019.24 1019.27 1019.27 1019.25 1019.18 1019.07 1018.91 1018.71 1018.48 1018.23 1017.98 1017.73 1017.51 1017.31 1017.15 1017.01 1016.90 1016.80 1016.71 1016.59
1015.74 1015.66 1015.65 1015.72 1015.89 1016.16 1016.51 1016.93 1017.40 1017.89 1018.36 1018.77 1019.10 1019.33 1019.46 1019.49 1019.46 1019.38 1019.29 1019.21 1019.17 1019.16 1019.19 1019.24 1019.29 1019.33 1019.33 1019.28 1019.18 1019.03 1018.84 1018.62 1018.38 1018.14 1017.92 1017.72 1017.54 1017.40 1017.28 1017.18 1017.10 1017.02 1016.93
1015.66 1015.55 1015.52 1015.56 1015.69 1015.91 1016.23 1016.64 1017.12 1017.63 1018.14 1018.60 1018.99 1019.27 1019.44 1019.50 1019.47 1019.39 1019.29 1019.21 1019.15 1019.14 1019.16 1019.22 1019.28 1019.33 1019.34 1019.30 1019.22 1019.08 1018.91 1018.72 1018.51 1018.32 1018.13 1017.97 1017.83 1017.72 1017.62 1017.54 1017.47 1017.39 1017.31
1015.66 1015.55 1015.50 1015.52 1015.61 1015.78 1016.06 1016.43 1016.88 1017.39 1017.92 1018.41 1018.84 1019.16 1019.37 1019.47 1019.46 1019.39 1019.29 1019.19 1019.12 1019.09 1019.10 1019.15 1019.21 1019.25 1019.27 1019.25 1019.18 1019.07 1018.94 1018.79 1018.64 1018.49 1018.37 1018.26 1018.17 1018.09 1018.02 1017.95 1017.88 1017.80 1017.71
1015.74 1015.68 1015.64 1015.64 1015.69 1015.82 1016.03 1016.34 1016.74 1017.22 1017.72 1018.22 1018.67 1019.03 1019.27 1019.40 1019.41 1019.35 1019.25 1019.14 1019.05 1019.00 1018.99 1019.01 1019.05 1019.09 1019.11 1019.10 1019.06 1018.99 1018.91 1018.82 1018.73 1018.66 1018.60 1018.56 1018.52 1018.47 1018.42 1018.36 1018.28 1018.19 1018.09
1015.91 1015.91 1015.91 1015.92 1015.95 1016.02 1016.16 1016.39 1016.71 1017.12 1017.58 1018.06 1018.50 1018.86 1019.12 1019.27 1019.30 1019.25 1019.14 1019.02 1018.91 1018.83 1018.79 1018.78 1018.81 1018.84 1018.86 1018.87 1018.87 1018.85 1018.82 1018.80 1018.79 1018.79 1018.80 1018.81 1018.81 1018.80 1018.77 1018.71 1018.62 1018.51 1018.38
1016.13 1016.22 1016.28 1016.31 1016.32 1016.35 1016.41 1016.55 1016.79 1017.11 1017.49 1017.91 1018.31 1018.66 1018.92 1019.06 1019.10 1019.05 1018.93 1018.80 1018.66 1018.55 1018.48 1018.46 1018.46 1018.49 1018.53 1018.56 1018.60 1018.63 1018.67 1018.71 1018.77 1018.83 1018.90 1018.96 1019.00 1019.01 1018.99 1018.93 1018.83 1018.71 1018.56
1016.35 1016.54 1016.67 1016.74 1016.76 1016.74 1016.74 1016.80 1016.93 1017.15 1017.44 1017.77 1018.11 1018.41 1018.63 1018.76 1018.79 1018.73 1018.60 1018.45 1018.29 1018.16 1018.07 1018.03 1018.02 1018.05 1018.10 1018.17 1018.24 1018.33 1018.42 1018.53 1018.64 1018.76 1018.87 1018.96 1019.02 1019.05 1019.03 1018.98 1018.88 1018.76 1018.61
1016.52 1016.81 1017.02 1017.13 1017.16 1017.13 1017.07 1017.05 1017.08 1017.20 1017.38 1017.62 1017.88 1018.11 1018.28 1018.37 1018.37 1018.29 1018.15 1017.98 1017.80 1017.66 1017.55 1017.49 1017.49 1017.52 1017.59 1017.68 1017.80 1017.93 1018.07 1018.22 1018.37 1018.52 1018.66 1018.77 1018.85 1018.89 1018.88 1018.84 1018.76 1018.65 1018.54
1016.61 1016.98 1017.26 1017.42 1017.46 1017.42 1017.34 1017.25 1017.21 1017.22 1017.31 1017.45 1017.61 1017.75 1017.86 1017.89 1017.85 1017.74 1017.58 1017.40 1017.21 1017.06 1016.94 1016.88 1016.87 1016.91 1017.00 1017.11 1017.26 1017.42 1017.59 1017.77 1017.94 1018.11 1018.26 1018.38 1018.47 1018.53 1018.54 1018.52 1018.48 1018.42 1018.35
1016.62 1017.03 1017.36 1017.55 1017.62 1017.59 1017.49 1017.37 1017.26 1017.21 1017.20 1017.25 1017.31 1017.37 1017.40 1017.37 1017.28 1017.14 1016.96 1016.76 1016.56 1016.39 1016.27 1016.21 1016.20 1016.24 1016.33 1016.46 1016.61 1016.79 1016.97 1017.16 1017.35 1017.52 1017.68 1017.81 1017.91 1017.98 1018.03 1018.06 1018.07 1018.07 1018.07
1016.55 1016.98 1017.33 1017.55 1017.64 1017.62 1017.53 1017.39 1017.26 1017.15 1017.08 1017.04 1017.02 1016.99 1016.94 1016.85 1016.71 1016.53 1016.32 1016.10 1015.89 1015.71 1015.58 1015.51 1015.49 1015.53 1015.61 1015.73 1015.88 1016.05 1016.23 1016.42 1016.61 1016.79 1016.95 1017.09 1017.21 1017.32 1017.41 1017.49 1017.57 1017.65 1017.72
1016.45 1016.87 1017.22 1017.45 1017.56 1017.56 1017.48 1017.35 1017.20 1017.07 1016.95 1016.84 1016.75 1016.65 1016.53 1016.37 1016.18 1015.95 1015.71 1015.47 1015.24 1015.05 1014.90 1014.81 1014.77 1014.78 1014.84 1014.93 1015.06 1015.22 1015.39 1015.57 1015.75 1015.93 1016.10 1016.26 1016.42 1016.56 1016.70 1016.85 1017.00 1017.16 1017.32
1016.36 1016.75 1017.07 1017.30 1017.42 1017.44 1017.38 1017.27 1017.13 1016.98 1016.83 1016.69 1016.53 1016.36 1016.17 1015.96 1015.71 1015.44 1015.17 1014.90 1014.65 1014.43 1014.25 1014.12 1014.05 1014.02 1014.03 1014.09 1014.18 1014.30 1014.45 1014.62 1014.80 1014.99 1015.18 1015.37 1015.56 1015.75 1015.95 1016.16 1016.38 1016.60 1016.83
1016.31 1016.65 1016.94 1017.15 1017.28 1017.32 1017.29 1017.20 1017.08 1016.93 1016.76 1016.57 1016.37 1016.14 1015.89 1015.61 1015.32 1015.01 1014.69 1014.39 1014.11 1013.85 1013.64 1013.46 1013.33 1013.24 1013.20 1013.20 1013.25 1013.33 1013.46 1013.61 1013.79 1013.99 1014.21 1014.43 1014.66 1014.90 1015.15 1015.41 1015.69 1015.97 1016.25
1016.31 1016.60 1016.86 1017.05 1017.17 1017.23 1017.22 1017.15 1017.04 1016.89 1016.70 1016.49 1016.24 1015.96 1015.65 1015.32 1014.98 1014.62 1014.27 1013.93 1013.61 1013.31 1013.04 1012.80 1012.61 1012.46 1012.35 1012.29 1012.28 1012.32 1012.42 1012.57 1012.75 1012.96 1013.20 1013.46 1013.73 1014.02 1014.31 1014.61 1014.92 1015.24 1015.56
1016.34 1016.61 1016.83 1017.00 1017.12 1017.17 1017.17 1017.12 1017.01 1016.86 1016.65 1016.40 1016.11 1015.78 1015.42 1015.04 1014.65 1014.25 1013.86 1013.48 1013.11 1012.76 1012.44 1012.14 1011.88 1011.66 1011.48 1011.36 1011.30 1011.30 1011.37 1011.50 1011.69 1011.92 1012.18 1012.47 1012.78 1013.09 1013.42 1013.75 1014.08 1014.42 1014.75
1016.39 1016.63 1016.83 1016.98 1017.09 1017.14 1017.14 1017.09 1016.98 1016.81 1016.57 1016.29 1015.95 1015.57 1015.16 1014.74 1014.30 1013.86 1013.42 1013.00 1012.59 1012.20 1011.82 1011.46 1011.13 1010.84 1010.60 1010.42 1010.31 1010.28 1010.33 1010.45 1010.64 1010.88 1011.16 1011.47 1011.80 1012.14 1012.49 1012.83 1013.18 1013.52 1013.86
1016.42 1016.64 1016.82 1016.96 1017.06 1017.10 1017.10 1017.03 1016.90 1016.70 1016.43 1016.10 1015.72 1015.29 1014.84 1014.36 1013.88 1013.40 1012.93 1012.47 1012.02 1011.58 1011.15 1010.75 1010.36 1010.02 1009.73 1009.50 1009.35 1009.29 1009.32 1009.43 1009.62 1009.86 1010.16 1010.48 1010.83 1011.18 1011.53 1011.89 1012.24 1012.59 1012.94
1016.40 1016.61 1016.78 1016.91 1016.99 1017.02 1017.00 1016.91 1016.75 1016.52 1016.21 1015.84 1015.41 1014.94 1014.44 1013.92 1013.40 1012.89 1012.38 1011.89 1011.40 1010.92 1010.46 1010.01 1009.58 1009.20 1008.87 1008.61 1008.43 1008.35 1008.36 1008.47 1008.65 1008.90 1009.20 1009.53 1009.88 1010.24 1010.60 1010.96 1011.32 1011.68 1012.05
1016.31 1016.51 1016.67 1016.79 1016.86 1016.88 1016.83 1016.72 1016.52 1016.25 1015.91 1015.49 1015.02 1014.51 1013.97 1013.42 1012.87 1012.32 1011.79 1011.26 1010.75 1010.24 1009.74 1009.26 1008.80 1008.39 1008.04 1007.76 1007.57 1007.48 1007.48 1007.58 1007.76 1008.01 1008.30 1008.63 1008.99 1009.35 1009.72 1010.10 1010.47 1010.86 1011.25
1016.16 1016.35 1016.50 1016.60 1016.66 1016.65 1016.58 1016.44 1016.22 1015.91 1015.53 1015.08 1014.57 1014.03 1013.46 1012.89 1012.31 1011.74 1011.18 1010.63 1010.08 1009.54 1009.02 1008.52 1008.04 1007.62 1007.26 1006.98 1006.78 1006.69 1006.69 1006.78 1006.96 1007.20 1007.49 1007.82 1008.18 1008.55 1008.93 1009.33 1009.73 1010.15 1010.58
1015.95 1016.12 1016.25 1016.34 1016.38 1016.35 1016.26 1016.09 1015.84 1015.50 1015.09 1014.62 1014.09 1013.53 1012.95 1012.36 1011.76 1011.17 1010.58 1010.00 1009.43 1008.87 1008.32 1007.80 1007.32 1006.89 1006.52 1006.25 1006.06 1005.97 1005.98 1006.07 1006.25 1006.48 1006.77 1007.10 1007.46 1007.84 1008.25 1008.67 1009.12 1009.58 1010.06
1015.72 1015.86 1015.96 1016.03 1016.04 1015.99 1015.87 1015.67 1015.40 1015.04 1014.62 1014.13 1013.61 1013.04 1012.45 1011.85 1011.25 1010.64 1010.03 1009.42 1008.82 1008.23 1007.65 1007.11 1006.62 1006.19 1005.83 1005.57 1005.39 1005.32 1005.33 1005.44 1005.61 1005.85 1006.14 1006.47 1006.84 1007.24 1007.67 1008.13 1008.62 1009.14 1009.67
1015.48 1015.58 1015.65 1015.67 1015.65 1015.57 1015.42 1015.20 1014.90 1014.54 1014.11 1013.63 1013.11 1012.56 1011.98 1011.38 1010.77 1010.14 1009.51 1008.87 1008.24 1007.61 1007.01 1006.46 1005.95 1005.52 1005.17 1004.92 1004.77 1004.71 1004.75 1004.86 1005.05 1005.30 1005.59 1005.93 1006.31 1006.73 1007.19 1007.69 1008.23 1008.79 1009.38
1015.27 1015.31 1015.32 1015.29 1015.22 1015.10 1014.91 1014.66 1014.35 1013.99 1013.57 1013.11 1012.61 1012.08 1011.52 1010.93 1010.32 1009.68 1009.02 1008.36 1007.69 1007.03 1006.40 1005.82 1005.30 1004.87 1004.54 1004.30 1004.18 1004.15 1004.21 1004.34 1004.55 1004.81 1005.12 1005.47 1005.87 1006.31 1006.80 1007.33 1007.91 1008.53 1009.16
Thickness
5609 5611 5612 5613 5613 5613 5614 5616 5617 5618 5620 5620 5621 5621 5622 5623 5625 5625 5626 5626 5626 5626 5626 5626 5626 5626 5627 5627 5627 5626 5627 5627 5628 5628 5630 5632 5634 5635 5637 5638 5638 5638 5638
5605 5606 5607 5607 5608 5608 5609 5611 5613 5614 5614 5613 5614 5615 5615 5616 5617 5618 5619 5619 5619 5619 5619 5618 5618 5618 5619 5619 5619 5619 5619 5619 5620 5619 5619 5620 5624 5627 5629 5630 5630 5630 5630
5601 5602 5602 5602 5601 5602 5604 5607 5607 5608 5608 5608 5609 5610 5609 5610 5610 5611 5611 5611 5612 5612 5612 5611 5611 5611 5611 5611 5611 5611 5611 5611 5611 5611 5611 5611 5614 5616 5619 5620 5621 5621 5622
5597 5598 5599 5599 5598 5598 5599 5600 5601 5602 5602 5602 5603 5603 5602 5602 5603 5603 5603 5604 5605 5605 5605 5604 5604 5604 5604 5604 5604 5604 5604 5603 5603 5602 5603 5604 5605 5606 5609 5610 5611 5612 5613
5591 5593 5593 5594 5594 5593 5593 5594 5594 5595 5595 5596 5597 5596 5595 5595 5594 5596 5596 5597 5598 5598 5598 5598 5598 5597 5597 5598 5597 5597 5596 5596 5595 5595 5595 5595 5595 5597 5598 5602 5603 5602 5603
5585 5586 5587 5588 5587 5587 5587 5587 5587 5588 5589 5590 5590 5590 5589 5589 5588 5589 5589 5589 5590 5590 5591 5591 5591 5591 5590 5590 5590 5590 5589 5588 5588 5587 5587 5588 5587 5588 5588 5591 5593 5593 5595
5578 5579 5580 5581 5580 5581 5581 5581 5581 5582 5583 5583 5583 5583 5583 5583 5583 5582 5582 5582 5582 5583 5583 5583 5583 5583 5583 5583 5583 5582 5582 5581 5580 5580 5580 5580 5581 5581 5581 5582 5584 5584 5585
5571 5573 5573 5573 5573 5574 5574 5574 5575 5576 5577 5577 5577 5576 5576 5576 5576 5576 5576 5575 5575 5576 5576 5576 5576 5576 5576 5576 5576 5575 5575 5574 5573 5573 5572 5573 5573 5573 5574 5574 5574 5575 5576
5565 5565 5565 5566 5566 5566 5567 5568 5569 5570 5570 5570 5570 5569 5569 5569 5569 5569 5569 5569 5569 5569 5569 5570 5570 5569 5569 5569 5569 5568 5567 5567 5566 5566 5566 5566 5566 5566 5566 5566 5566 5566 5569
5557 5558 5557 5557 5558 5558 5559 5560 5561 5562 5563 5563 5563 5563 5563 5562 5562 5562 5561 5562 5562 5562 5562 5563 5562 5562 5562 5562 5561 5561 5561 5560 5560 5559 5559 5559 5559 5558 5558 5558 5558 5558 5559
5548 5547 5548 5549 5549 5549 5550 5551 5552 5553 5554 5555 5555 5555 5555 5555 5554 5554 5555 5555 5555 5555 5554 5555 5555 5555 5555 5554 5554 5554 5554 5553 5553 5552 5552 5552 5551 5550 5550 5549 5549 5550 5550
5540 5540 5540 5540 5541 5541 5542 5543 5544 5545 5546 5547 5547 5547 5547 5547 5547 5547 5547 5547 5547 5547 5546 5546 5546 5547 5547 5546 5546 5546 5546 5546 5545 5545 5544 5545 5544 5543 5542 5542 5542 5542 5542
5533 5531 5531 5532 5532 5533 5534 5535 5535 5536 5537 5538 5538 5538 5538 5539 5539 5539 5539 5539 5538 5538 5537 5537 5537 5538 5539 5539 5539 5538 5538 5538 5538 5538 5537 5537 5536 5535 5534 5534 5534 5534 5534
5524 5523 5523 5523 5523 5524 5524 5525 5526 5527 5528 5528 5529 5529 5530 5530 5531 5531 5530 5530 5529 5529 5529 5528 5529 5529 5530 5530 5531 5530 5530 5530 5531 5531 5530 5529 5529 5528 5527 5526 5526 5525 5524
5515 5515 5514 5514 5514 5514 5515 5516 5517 5518 5518 5518 5519 5520 5521 5521 5521 5521 5521 5521 5520 5520 5520 5520 5520 5521 5521 5522 5522 5523 5523 5522 5523 5523 5522 5522 5522 5521 5520 5519 5517 5516 5515
5505 5505 5506 5505 5505 5505 5506 5506 5507 5508 5508 5508 5509 5510 5511 5511 5511 5512 5511 5511 5511 5511 5510 5511 5511 5512 5513 5515 5516 5515 5515 5514 5514 5514 5514 5514 5513 5513 5513 5512 5511 5510 5508
5495 5495 5495 5495 5495 5495 5496 5496 5497 5497 5497 5498 5499 5500 5500 5500 5501 5501 5500 5500 5500 5501 5501 5501 5502 5503 5504 5506 5507 5508 5506 5506 5506 5506 5505 5505 5506 5505 5504 5504 5503 5502 5501
5485 5485 5484 5484 5485 5484 5485 5485 5486 5486 5486 5487 5488 5489 5489 5489 5490 5489 5489 5489 5489 5490 5490 5491 5492 5493 5495 5496 5497 5498 5498 5497 5498 5498 5497 5497 5497 5496 5495 5494 5493 5493 5492
5475 5474 5473 5473 5473 5473 5473 5473 5474 5474 5474 5476 5477 5478 5478 5478 5478 5478 5478 5478 5478 5479 5480 5481 5481 5482 5484 5486 5487 5488 5487 5488 5488 5489 5489 5489 5489 5489 5488 5485 5484 5483 5482
5463 5463 5463 5462 5462 5462 5461 5461 5462 5462 5463 5465 5466 5466 5466 5465 5466 5466 5467 5467 5466 5467 5468 5469 5470 5471 5473 5475 5477 5477 5477 5477 5479 5479 5479 5480 5480 5480 5479 5477 5475 5474 5473
5453 5452 5451 5450 5451 5450 5449 5449 5450 5450 5452 5453 5453 5454 5454 5454 5454 5454 5454 5454 5454 5455 5456 5458 5459 5460 5462 5464 5465 5466 5466 5467 5468 5469 5470 5471 5471 5471 5470 5469 5467 5466 5464
5441 5440 5439 5439 5439 5438 5437 5437 5438 5440 5440 5440 5441 5441 5441 5441 5442 5442 5442 5442 5442 5442 5444 5445 5447 5449 5450 5452 5454 5456 5457 5458 5458 5460 5461 5462 5462 5461 5461 5459 5458 5456 5454
5428 5428 5427 5428 5428 5426 5425 5425 5428 5428 5428 5428 5428 5429 5429 5429 5429 5429 5429 5430 5430 5430 5432 5432 5435 5438 5439 5441 5443 5445 5447 5448 5448 5450 5451 5451 5451 5450 5450 5449 5447 5445 5442
5415 5415 5415 5415 5416 5416 5414 5415 5416 5416 5415 5416 5417 5417 5417 5417 5418 5417 5418 5418 5419 5419 5420 5421 5423 5426 5428 5429 5431 5433 5435 5437 5438 5438 5439 5439 5438 5437 5437 5436 5435 5433 5431
5403 5402 5402 5403 5405 5404 5404 5404 5404 5404 5403 5404 5405 5405 5405 5406 5406 5406 5407 5408 5409 5409 5410 5411 5413 5414 5418 5421 5422 5422 5423 5424 5425 5425 5425 5425 5425 5424 5424 5422 5421 5420 5419
5389 5389 5389 5390 5392 5392 5392 5393 5393 5392 5391 5392 5393 5393 5393 5394 5394 5395 5397 5399 5399 5401 5401 5402 5403 5405 5408 5410 5411 5412 5413 5413 5414 5413 5413 5414 5414 5414 5413 5412 5411 5409 5408